Weather Roundup
Issued by NWS

Home | Current Version | Previous Version | Graphics & Text | Print | Product List | Glossary Off
Versions: 1 2 3 4 5 6 7 8 9 10 11 12 13 14 15 16 17 18 19 20 21 22 23 24 25 26 27 28 29 30 31 32 33 34 35 36 37 38 39 40 41 42 43 44 45 46 47 48 49 50

000
NZUS93 KARX 062059
HRRWXR

CURRENT HOURLY OBSERVATIONS ACROSS
MUCH OF THE UPPER MISSISSIPPI VALLEY
NATIONAL WEATHER SERVICE LA CROSSE WI
400 PM CDT MON JUL 06 2015


...SOUTHEAST MINNESOTA...


CITY           SKY/WX    TMP DP  RH WIND       PRES   REMARKS
ROCHESTER      CLOUDY    67  63  87 N23G29    29.91R FOG
ROCHESTER/MAYO CLOUDY    65  63  93 N12G24    29.90R
WINONA         CLOUDY    70  66  88 NW13G22   29.85R
AUSTIN         PTSUNNY   72  61  68 N17G29    29.91R HAZE
ALBERT LEA       N/A     70  59  68 N14G30    29.93R HAZE
DODGE CENTER   PTSUNNY   66  61  82 N21G28    29.93R HAZE
PRESTON        CLOUDY    66  63  90 N17G24    29.86R
OWATONNA       PTSUNNY   68  57  68 N17G25    29.94R HAZE
FARIBAULT      NOT AVBL
$$

...ELSEWHERE IN MINNESOTA...


CITY           SKY/WX    TMP DP  RH WIND       PRES   REMARKS
MINNEAPOLIS    CLOUDY    70  58  65 N15G24    29.94R SMOKE
INTNL FALLS    CLOUDY    61  44  53 N9        30.02R
DULUTH         PTSUNNY   65  55  70 NW8       29.93S SMOKE
RED WING       PTSUNNY   66  59  77 N15G25    29.90R HAZE
REDWOOD FALLS  CLOUDY    73  58  59 N13G22    29.98S HAZE
MANKATO        CLOUDY    72  57  60 N17G25    29.95R
WORTHINGTON    CLOUDY    72  57  60 N21G29    30.01R
FAIRMONT       CLOUDY    72  57  60 N18G24    29.96R
$$

...SOUTHWEST WISCONSIN...


CITY           SKY/WX    TMP DP  RH WIND       PRES   REMARKS
LA CROSSE      CLOUDY    76  69  79 S8        29.80S
PRAIRIE DU CHI CLOUDY    77  68  72 SW8       29.83F
BOSCOBEL       CLOUDY    80  71  74 SW10      29.83F
LONE ROCK      NOT AVBL
PLATTEVILLE    CLOUDY    78  72  81 S16       29.86F
FORT MC COY    CLOUDY    76  67  73 S7        29.83S
VIROQUA        CLOUDY    72  71  95 SW9       29.85F
WIS DELLS      CLOUDY    79  67  66 SW10      29.84S
$$

...ELSEWHERE IN WISCONSIN...


CITY           SKY/WX    TMP DP  RH WIND       PRES   REMARKS
MILWAUKEE      CLOUDY    77  68  73 S13       29.84F
MADISON        CLOUDY    79  70  74 S12       29.84F
GREEN BAY      CLOUDY    79  70  74 SW9       29.80R
EAU CLAIRE     LGT RAIN  64  59  83 N15G24    29.87R
BLACK RVR FLS  RAIN      73  73 100 SW5       29.81S
MEDFORD        RAIN      69  68  97 W9        29.80R
WAUSAU         LGT RAIN  73  70  90 SW9       29.78F
WIS RAPIDS     LGT RAIN  73  69  87 SW12G20   29.81S FOG
MARSHFIELD     CLOUDY    73  68  84 NW6       29.81S
RICE LAKE      CLOUDY    62  58  87 N9G18     29.91S FOG
$$

...NORTHEAST IOWA...


CITY           SKY/WX    TMP DP  RH WIND       PRES   REMARKS
DECORAH          N/A    N/A N/A N/A MISG        N/A
MASON CITY     CLOUDY    73  65  75 N22G29    29.91R
CHARLES CITY   PTSUNNY   73  73 100 NW17G25   29.86S
OELWEIN        CLOUDY    77  73  88 SW9G16    29.85F
$$

...ELSEWHERE IN IOWA...


CITY           SKY/WX    TMP DP  RH WIND       PRES   REMARKS
DES MOINES     LGT RAIN  74  69  85 W3        29.88S
IOWA CITY      CLOUDY    82  75  79 S6        29.84F
FORT DODGE     CLOUDY    72  63  73 N8G16     29.93R
$$

...NORTHERN ILLINOIS...


CITY           SKY/WX    TMP DP  RH WIND       PRES   REMARKS
CHICAGO-OHARE  CLOUDY    76  70  82 S8        29.90F
CHICAGO-MIDWAY CLOUDY    79  70  74 S12       29.91F
MOLINE         CLOUDY    82  73  74 S7        29.83F
ROCKFORD       LGT RAIN  77  72  84 SW6       29.89F
PEORIA         CLOUDY    89  75  63 S14       29.88F HX  99
$$

NOTE: "FAIR" INDICATES FEW OR NO CLOUDS BELOW 12,000 FEET WITH NO
SIGNIFICANT WEATHER AND/OR OBSTRUCTIONS TO VISIBILITY. WIND
SPEEDS ARE IN MILES-PER-HOUR.



USA.gov is the U.S. government's official web portal to all federal, state and local government web resources and services.